AAY1592 KPVU-KAUS

Flight info

Callsign AAY1592
Flight time N/A
Altitude 35000
Route DITTI1 DAHLI KIMMR TXO LBB DILLO LAIKS4
Aircraft A320/M-SDE3FGHIRWY/LB1

Departure

Time 2026-04-20 23:02
Airport Provo Municipal Airport (KPVU)

Arrival

Time N/A
Airport Austin Bergstrom International Airport (KAUS)
Time Latitude Longitude Altitude Speed Heading
2026-04-20 22:39 40.21369 -111.71333 4499 ft 0 kts 56°
2026-04-20 22:56 40.21356 -111.71358 4499 ft 4 kts 56°
2026-04-20 22:56 40.21341 -111.71387 4499 ft 4 kts 56°
2026-04-20 22:56 40.21326 -111.71416 4499 ft 4 kts 56°
2026-04-20 22:56 40.21319 -111.71430 4503 ft 0 kts 56°
2026-04-20 22:59 40.21319 -111.71429 4503 ft 1 kts 57°
2026-04-20 22:59 40.21316 -111.71405 4501 ft 4 kts 118°
2026-04-20 22:59 40.21279 -111.71387 4498 ft 6 kts 169°
2026-04-20 22:59 40.21245 -111.71394 4500 ft 5 kts 209°
2026-04-20 23:00 40.21219 -111.71420 4501 ft 6 kts 199°
2026-04-20 23:00 40.21174 -111.71392 4498 ft 9 kts 146°
2026-04-20 23:00 40.21122 -111.71427 4500 ft 11 kts 237°
2026-04-20 23:00 40.21091 -111.71513 4498 ft 10 kts 274°
2026-04-20 23:01 40.21136 -111.71574 4494 ft 11 kts 326°
2026-04-20 23:01 40.21323 -111.71738 4500 ft 65 kts 326°
2026-04-20 23:01 40.21882 -111.72236 4501 ft 129 kts 325°
2026-04-20 23:01 40.22786 -111.73034 4565 ft 174 kts 327°
2026-04-20 23:02 40.23737 -111.73962 5313 ft 171 kts 306°
2026-04-20 23:02 40.24046 -111.75381 6027 ft 165 kts 258°
2026-04-20 23:02 40.23543 -111.76737 6527 ft 174 kts 228°
2026-04-20 23:02 40.22669 -111.77964 6692 ft 193 kts 229°
2026-04-20 23:03 40.21713 -111.79329 6828 ft 213 kts 229°
2026-04-20 23:03 40.20665 -111.80845 6912 ft 237 kts 229°
2026-04-20 23:03 40.19509 -111.82533 7182 ft 259 kts 228°
2026-04-20 23:03 40.18278 -111.84340 7729 ft 269 kts 228°
2026-04-20 23:04 40.17044 -111.86160 8445 ft 272 kts 228°
2026-04-20 23:04 40.15780 -111.88033 9178 ft 276 kts 228°
2026-04-20 23:04 40.14502 -111.89929 9913 ft 279 kts 227°
2026-04-20 23:04 40.12984 -111.91532 10400 ft 291 kts 206°
2026-04-20 23:05 40.11013 -111.92495 10562 ft 315 kts 196°
2026-04-20 23:05 40.08811 -111.93140 10857 ft 331 kts 191°
2026-04-20 23:05 40.06518 -111.93643 11424 ft 337 kts 189°
2026-04-20 23:05 40.04195 -111.94130 12144 ft 339 kts 189°
2026-04-20 23:06 40.01832 -111.94394 12805 ft 343 kts 179°
2026-04-20 23:06 39.99458 -111.94001 13510 ft 346 kts 167°
2026-04-20 23:06 39.97145 -111.93102 14164 ft 349 kts 163°
2026-04-20 23:06 39.94842 -111.92187 14739 ft 352 kts 164°
2026-04-20 23:07 39.92483 -111.91259 15313 ft 356 kts 165°
2026-04-20 23:07 39.90091 -111.90391 15871 ft 359 kts 170°
2026-04-20 23:07 39.87602 -111.90069 16418 ft 361 kts 181°
2026-04-20 23:07 39.85098 -111.90363 16958 ft 364 kts 188°
2026-04-20 23:08 39.82575 -111.90801 17495 ft 367 kts 188°
2026-04-20 23:08 39.80032 -111.91245 18063 ft 370 kts 189°
2026-04-20 23:08 39.77462 -111.91665 18548 ft 374 kts 185°
2026-04-20 23:08 39.74843 -111.91396 18995 ft 381 kts 168°
2026-04-20 23:09 39.72378 -111.90049 19433 ft 390 kts 149°
2026-04-20 23:09 39.70334 -111.87700 19859 ft 399 kts 130°
2026-04-20 23:09 39.68949 -111.84552 20275 ft 408 kts 112°
2026-04-20 23:09 39.68096 -111.81067 20691 ft 412 kts 109°
2026-04-20 23:10 39.67261 -111.77473 21113 ft 416 kts 108°
2026-04-20 23:10 39.66427 -111.73853 21549 ft 420 kts 108°
2026-04-20 23:10 39.65580 -111.70208 21956 ft 423 kts 108°
2026-04-20 23:10 39.64723 -111.66550 22310 ft 426 kts 108°